Flag for U.S.A. Weather past 2 weeks in Brockton, Massachusetts, U.S.A.

Now
72 °F

Mild.


Feels Like: 76 °F
Forecast: 57 / 75 °F
Wind: 21 mph from South

Location: East Milton

Current Time: May 4, 2015 at 8:13:33 PM

Latest Report: May 4, 2015 at 7:54 PM


Visibility: N/A

Pressure: 30.12 "Hg

Humidity: 29%

Dew point: 38 °F

Location of BrocktonLocation

Historic Weather in Brockton — Graph

°F

Brockton temperature yesterday

Maximum temperature yesterday: 74 °F (at 2:54 PM)
Minimum temperature yesterday: 45 °F (at 12:54 AM)
Average temperature yesterday: 55 °F

Past Weeks' High & Low Weather Summary

 TemperatureHumidityPressure
High82 °F (May 4, 2:54 PM)100% (Apr 20, 3:54 PM)30.28 "Hg (Apr 20, 3:54 PM)
Low30 °F (Apr 25, 5:54 AM)23% (May 4, 2:54 PM)29.54 "Hg (Apr 27, 2:54 PM)
Average49 °F63%29.82 "Hg
* Reported Apr 19 6:54 PM — May 4 6:54 PM, Brockton, Weather by CustomWeather, © 2015

Note: Actual official high and low records may vary slightly from our data, if they occured in-between our weather recording intervals... More about our weather records

Advertising

Brockton weather history for previous 24 hours

 ConditionsComfort  
Time TempWeatherWind HumidityBarometerVisibility
6:54 PM
Mon, May 4
75 °FMild.25 mph24%30.11 "HgN/A
5:54 PM78 °FPleasantly warm.25 mph23%30.10 "HgN/A
4:54 PM80 °FPleasantly warm.21 mph27%30.11 "HgN/A
3:54 PM81 °FPleasantly warm.20 mph25%30.12 "HgN/A
2:54 PM82 °FPleasantly warm.15 mph23%30.13 "HgN/A
1:54 PM81 °FPleasantly warm.13 mph25%30.15 "HgN/A
12:54 PM81 °FPleasantly warm.12 mph26%30.17 "HgN/A
11:54 AM78 °FPleasantly warm.10 mph31%30.20 "HgN/A
10:54 AM73 °FMild.7 mph38%30.22 "HgN/A
9:54 AM68 °FMild.8 mph44%30.22 "HgN/A
8:54 AM61 °FRefreshingly cool.9 mph58%30.22 "HgN/A
7:54 AM54 °FCool.10 mph72%30.22 "HgN/A
6:54 AM49 °FCool.14 mph90%30.22 "HgN/A
5:54 AM48 °FCool.15 mph89%30.19 "HgN/A
4:54 AM47 °FCool.16 mph90%30.18 "HgN/A
3:54 AM47 °FCool.14 mph90%30.18 "HgN/A
2:54 AM48 °FCool.15 mph86%30.17 "HgN/A
1:54 AM48 °FCool.16 mph83%30.17 "HgN/A
12:54 AM49 °FCool.15 mph77%30.17 "HgN/A
11:54 PM
Sun, May 3
49 °FCool.17 mph71%30.16 "HgN/A
10:54 PM49 °FCool.15 mph69%30.15 "HgN/A
9:54 PM49 °FCool.15 mph69%30.16 "HgN/A
8:54 PM51 °FCool.16 mph66%30.15 "HgN/A
Weather by CustomWeather, © 2015

See weather overviewHow to use our weather pages